COSMOS 2251 DEB, 40808

Orbit data source: Space-Track

COSMOS 2251 DEB, 40808 is space debris in LEO originally from a launch on Wed, 16 Jun 1993 UTC launched from the Plesetsk Missile And Space Complex (PKMTR). The debris from Iridium 33, an American commercial communications satellite, has been tracked extensively since its accidental collision with the defunct Russian satellite Cosmos 2251 in 2009. This event, occurring at high speed in low Earth orbit (LEO), generated thousands of pieces of space debris, significantly increasing the risk of further collisions. The Iridium 33 debris cloud has impacted space traffic management and orbital debris mitigation strategies, making it a subject of ongoing study in space situational awareness.

Loading next visibility...
Identifier
40808, 1993-036BWM
Orbit
LEO
Country
Flag of CISCIS
Related business
Manufacturer
Unknown
Mission
Spacecraft
Bus & Motor
Unknown
Mass
Unknown
Launch date (UTC)
1993-06-16 (33 years ago)
Launch vehicle
Unknown
Launch site
Plesetsk Missile And Space Complex (PKMTR)
Object type
Payload
Rocket body
Debris
Shape & HBR
Unknown shape, 0.1 m
Radar Cross Section
Small (<0.1 m²)

Expand to show TLE details & history
Last TLE update: 1 day ago

TLE from 1 day ago
0 COSMOS 2251 DEB
1 40808U 93036BWM 26061.26660212  .00011060  00000-0  18821-2 0  9991
2 40808  74.0471 351.7457 0007428 352.2591 166.4618 14.69135077647861
Epoch: 2026-03-02T06:23Z
TLE epoch observation values (Epoch: 2026-03-02T06:23:54.423Z)
Latitude
20.41511°
Longitude
-90.36799°
Altitude
671.182 km
Speed
7.521 km/s
True Right ascension
11h 02m 41s
True Declination
20° 18' 06"
Sunlit
Object was in full shadow at epoch
Visualization orbit readout
Latitude
Unknown
Longitude
Unknown
Altitude
Unknown
Speed
Unknown
Apparent Right ascension
Unknown
Apparent Declination
Unknown
Sunlit
N/A
Visualization observer readout
Local Sidereal Time
18:12:44
Azimuth
Unknown
Elevation
Unknown
Doppler factor
Unknown
Orbital elements
Apogee altitude
666.646 km
Perigee altitude
656.188 km
Semi-major axis
7,039.554 km
Eccentricity
0.00074
Inclination
74.0471°
RAAN
351.7457°
Arg. of periapsis
352.2591°
True anomaly
166.48171°
Mean anomaly
166.4618°
Eccentric anomaly
166.47176°
Mean motion
3.67473 °/min
Orbital period
97.97 mins
BSTAR
0.0018821
Loading maneuver chart data...
Computing Atmospheric mass density...

Documentation

Showing up to 5 results
|